Wetbulb
22.60 22.87 22.68 22.79 22.87 22.78 23.05 23.91 25.16 25.29 25.65 25.87 26.29 26.34 26.30 25.98 26.06 26.27 26.14 25.79 26.36 27.09
21.69 22.16 22.15 22.42 23.15 23.13 23.75 24.89 25.07 25.02 24.54 24.97 25.24 25.43 25.31 24.86 24.76 25.39 25.61 25.63 26.06 26.24
21.81 22.35 22.46 22.45 22.08 22.54 23.15 23.55 23.54 23.59 23.84 23.99 24.40 24.64 24.55 24.20 24.78 24.48 25.06 26.00 25.36 25.70
21.52 22.15 22.25 22.20 22.18 22.32 22.93 22.96 22.84 23.06 23.07 22.99 23.17 23.90 23.70 23.69 23.88 23.48 23.94 24.81 24.91 24.95
21.56 21.52 20.95 21.03 21.82 22.51 21.88 22.90 22.74 22.86 22.68 22.77 23.04 23.40 22.84 22.63 23.31 22.87 22.56 23.33 23.98 24.11
19.81 19.86 19.96 20.65 21.53 21.99 21.67 21.74 22.09 22.65 21.94 22.05 22.66 22.64 22.89 22.78 22.64 22.78 22.88 23.07 23.13 23.46
18.90 19.67 19.88 20.63 21.13 21.46 21.64 21.21 21.32 21.62 21.80 22.39 22.41 22.96 22.92 23.02 22.70 22.73 23.15 23.88 23.85 23.85
19.25 19.86 19.97 20.17 20.61 21.00 21.12 21.22 21.15 21.17 21.52 21.83 22.14 23.08 22.74 23.50 22.92 22.24 22.03 23.14 23.97 24.62
18.65 19.04 19.21 19.46 19.70 19.85 19.88 20.07 20.47 20.32 20.79 21.23 22.82 26.63 28.63 28.27 25.73 26.30 26.04 25.12 24.81 24.45
18.03 17.95 18.29 18.68 18.45 18.66 18.60 19.13 19.28 19.98 20.72 20.76 21.98 27.69 29.41 30.31 27.93 27.40 26.76 26.31 26.20 26.08
17.17 16.83 17.31 17.49 17.64 17.50 18.42 18.80 19.55 20.74 21.82 22.21 23.68 28.91 30.09 30.68 27.72 27.08 27.13 27.73 27.89 26.82
16.10 15.67 16.52 16.19 16.24 17.49 18.43 19.76 20.52 22.42 23.66 23.79 24.25 28.78 29.85 29.61 27.12 26.43 26.31 27.20 27.79 27.70
15.75 16.02 15.26 15.90 16.80 18.65 20.00 21.33 23.10 22.83 24.08 26.39 24.36 27.81 29.23 28.99 26.62 25.63 26.12 26.95 27.46 30.96
15.40 15.06 16.13 16.97 18.33 20.11 21.24 21.69 21.11 23.04 23.65 23.94 25.22 25.92 30.00 31.09 28.34 27.23 26.69 26.58 27.04 28.61
MSLP
1032.47 1032.06 1031.59 1031.06 1030.48 1029.91 1029.25 1028.50 1027.84 1027.30 1026.83 1026.33 1025.81 1025.33 1024.93 1024.46 1023.93 1023.46 1022.91 1022.43 1022.10 1021.64
1032.34 1031.93 1031.27 1030.56 1029.87 1029.10 1028.42 1027.67 1027.08 1026.69 1026.28 1025.66 1025.05 1024.51 1024.04 1023.48 1022.88 1022.49 1022.04 1021.53 1021.13 1020.72
1031.78 1031.36 1030.80 1030.00 1029.19 1028.53 1027.65 1026.98 1026.47 1026.02 1025.47 1024.81 1024.22 1023.67 1023.13 1022.43 1021.87 1021.44 1020.92 1020.47 1020.04 1019.61
1031.33 1030.66 1029.91 1029.25 1028.42 1027.71 1026.99 1026.29 1025.64 1025.10 1024.47 1023.80 1023.16 1022.64 1022.08 1021.43 1020.87 1020.34 1019.78 1019.39 1018.95 1018.36
1030.90 1030.10 1029.28 1028.60 1027.88 1026.93 1026.07 1025.30 1024.73 1024.08 1023.34 1022.60 1021.99 1021.43 1020.91 1020.21 1019.61 1019.06 1018.42 1017.97 1017.74 1017.09
1030.21 1029.36 1028.61 1027.67 1026.88 1026.04 1025.17 1024.35 1023.65 1022.96 1022.19 1021.43 1020.79 1020.10 1019.50 1018.82 1018.09 1017.55 1016.94 1016.58 1016.30 1015.81
1029.79 1028.81 1027.63 1026.78 1025.88 1025.04 1024.25 1023.36 1022.50 1021.81 1020.99 1020.23 1019.43 1018.72 1017.91 1017.16 1016.40 1015.81 1015.25 1014.92 1014.63 1014.39
1029.12 1028.17 1027.09 1025.96 1025.02 1024.15 1023.32 1022.36 1021.47 1020.56 1019.69 1018.85 1018.00 1017.06 1016.15 1015.38 1014.52 1013.84 1013.23 1012.88 1012.65 1012.44
1028.53 1027.44 1026.42 1025.35 1024.35 1023.34 1022.28 1021.26 1020.44 1019.38 1018.29 1017.29 1016.30 1015.23 1014.12 1013.09 1012.27 1011.65 1011.03 1010.56 1010.43 1010.34
1028.08 1026.93 1025.76 1024.80 1023.75 1022.46 1021.31 1020.33 1019.20 1017.98 1016.87 1015.61 1014.44 1013.30 1012.00 1011.05 1010.10 1009.28 1008.73 1008.44 1008.26 1007.96
1027.46 1026.47 1025.36 1024.28 1022.97 1021.61 1020.56 1019.23 1017.81 1016.37 1015.08 1013.75 1012.52 1011.29 1009.95 1008.93 1008.07 1007.39 1006.77 1006.29 1006.00 1005.74
1027.34 1026.09 1024.95 1023.68 1022.20 1020.75 1019.54 1017.90 1016.41 1014.91 1013.52 1012.31 1010.89 1009.70 1008.37 1007.22 1006.32 1005.40 1004.65 1004.07 1003.69 1003.43
1027.01 1025.77 1024.59 1023.13 1021.42 1019.96 1018.44 1016.77 1015.19 1013.62 1012.43 1011.01 1009.45 1008.19 1006.93 1005.77 1004.68 1003.41 1002.46 1001.65 1001.08 1000.81
1026.35 1025.39 1023.90 1022.27 1020.50 1018.92 1017.27 1015.77 1014.18 1012.56 1011.07 1009.62 1008.32 1006.81 1005.34 1003.94 1002.72 1001.43 1000.21 999.34 998.68 998.35
Wind_Speed
7 6 7 8 9 9 9 10 12 12 13 14 14 13 13 11 11 13 11 14 12 10
7 9 10 12 11 9 11 11 13 14 15 15 15 15 15 12 14 13 13 14 14 12
10 11 12 11 13 14 14 14 15 15 16 16 16 16 16 14 14 15 12 12 15 14
12 13 12 12 13 14 15 15 16 17 17 17 17 16 16 17 17 18 17 17 17 18
13 14 14 14 16 15 16 16 17 17 18 18 17 17 18 19 17 19 19 19 18 19
14 14 14 15 16 17 17 17 17 18 18 19 18 19 18 19 20 20 21 20 20 20
15 15 15 16 17 17 17 18 18 18 19 19 20 20 20 20 21 21 20 20 20 20
15 15 16 17 17 18 18 18 19 20 19 20 18 16 19 20 21 22 23 22 21 21
16 16 17 18 18 19 19 19 19 20 20 21 16 30 35 32 20 20 19 19 19 21
16 17 18 19 19 20 20 19 20 20 21 22 22 35 37 37 21 20 19 20 19 19
16 18 19 19 20 20 18 19 19 20 22 22 19 34 36 36 22 18 19 19 20 20
17 19 19 20 21 20 19 19 20 20 20 21 20 33 37 33 19 17 20 19 21 22
18 18 19 20 21 17 19 19 17 21 19 25 23 33 38 33 16 18 16 19 21 35
17 18 19 19 18 17 19 18 20 19 19 21 20 21 34 35 19 16 16 16 15 15
Wind_Direction
297 302 294 290 292 290 290 290 290 286 284 282 283 283 279 275 271 268 264 263 258 257
296 299 296 294 292 292 290 289 290 290 285 282 282 281 280 274 271 267 265 263 262 258
303 295 292 293 292 291 289 290 290 287 283 281 279 277 276 274 271 268 264 261 258 257
298 297 294 292 290 288 289 288 287 285 283 280 278 275 272 270 270 267 266 261 259 258
298 297 296 292 290 291 289 287 285 283 282 279 277 274 270 269 267 266 264 262 261 258
297 296 293 291 291 292 291 288 285 283 281 281 278 275 270 266 265 262 260 259 258 259
297 298 295 295 295 294 292 290 288 285 283 280 278 275 272 267 264 262 259 257 254 254
301 298 299 300 299 297 295 291 290 289 284 281 277 273 270 264 259 256 255 252 250 248
303 305 304 303 302 300 297 294 293 288 285 283 277 278 280 281 273 264 258 253 246 245
308 307 308 306 304 299 299 298 291 288 286 282 278 279 283 283 276 267 258 254 251 249
311 309 309 305 302 300 300 297 294 292 290 286 284 285 289 291 284 276 267 260 253 246
312 309 307 305 302 302 300 299 297 294 294 294 290 292 293 292 285 274 267 260 253 248
306 306 304 300 300 299 299 297 300 299 293 293 292 289 291 291 280 273 266 258 254 254
307 304 299 300 298 301 305 305 302 298 299 294 293 295 295 297 290 277 270 263 257 250